OneWeb SL0575

operational
NORAD ID: 56064 Int'l Des: 2023-043 Owner: ONEWEBN Country: UK Constellation: oneweb
LEOCIRCULARPOLARONEWEB_TYPE

关于 OneWeb SL0575

正在加载描述...

实时位置

正在加载3D地球...

即将过境

高度历史

Altitude vs Time

uPlot chart will show altitude changes over time

两行轨道根数

1 56064U 23043U 26034.09795691 .00000026 00000-0 35326-4 0 9995
2 56064 87.9011 255.4620 0001793 73.6958 286.4370 13.16594263141322
Epoch: Feb 3, 2026 • Age: 9 hours

当前状态

高度 1209.0 km
速度 7.26 km/s
星下点 72.97°N, 49.05°W
发射日期 Mar 26, 2023
运行时间 2.8 years
类型 internet

技术详情

分类 Payload
质量 148.00 kg
干质量 140.00 kg
总质量 148.00 kg
长度 1.30 m
直径 1.00 m
跨度 5.00 m
形状 Trapezoid+2 pan
制造商 ONEWUS
平台类型 ARROW
阶段状态 In Orbit
所有者/国家 ONEWEBN/UK

大型星座

Loading constellations...